Вернуться в каталог

FENGYUN 1C DEB

LostPO
NORAD 31858·DEBRIS·🇨🇳 China

Запущен May 10, 1999 с Taiyuan Satellite Launch Center

Loading…

Ближайшие Пролёты (ближайшие 24 часа)

TLE

УстаревшееSource: Space-Track

Эпоха: Aug 18, 2017, 22:01 UTC

1 31858U 99025CJY 17230.91756475  .00000093  00000-0  11308-3 0  9995
2 31858  97.6319 119.2854 0366565 251.2096 104.8956 13.57280047505154

Отслеживайте FENGYUN 1C DEB в реальном времени с AllMySat

Download on the App Store